Wetbulb
77.47 77.60 76.08 75.29 75.47 76.26 74.72 74.65 72.23 67.87 68.55 72.41 71.56 73.37 75.46 74.88 75.00 74.56 73.54 72.03 71.56 71.04 70.70 70.08 69.64 69.73 69.61 69.22 68.21 66.64 63.86 62.45 61.51 60.99 61.43 61.98 62.59 63.31
76.74 78.54 77.53 76.68 77.03 75.41 74.66 73.74 73.02 72.28 68.85 72.18 72.09 72.19 72.94 75.23 74.11 75.75 74.42 71.73 70.93 70.33 69.60 69.17 68.87 68.77 68.58 68.36 67.37 66.02 64.48 62.71 61.56 61.06 60.98 61.23 62.07 62.78
77.87 77.56 77.35 78.56 75.59 74.37 75.66 75.14 74.16 73.73 70.35 71.08 71.88 75.41 74.40 75.90 74.97 75.57 75.28 74.36 71.01 69.67 69.20 68.48 67.91 67.98 68.08 67.68 66.90 66.06 65.25 63.91 62.36 61.35 60.79 60.59 61.00 62.01
77.82 77.88 77.50 76.71 77.78 78.42 76.71 76.89 75.77 76.51 72.77 73.58 74.59 72.03 75.53 75.48 74.89 74.99 73.99 74.05 74.17 69.93 68.69 67.73 67.19 66.74 66.54 66.13 65.51 64.87 64.30 63.69 62.64 61.69 61.23 60.72 60.21 60.74
76.94 77.57 77.42 77.31 76.33 75.97 76.02 75.61 74.22 73.97 74.22 72.27 71.34 72.67 73.71 73.39 72.44 72.99 73.21 74.14 73.55 69.35 67.25 66.92 66.59 66.20 65.65 64.94 64.17 63.22 62.48 61.81 60.75 59.75 59.34 59.73 60.20 59.88
76.88 76.91 76.90 76.21 75.81 76.66 75.06 75.24 75.37 74.05 74.60 71.80 70.66 71.69 71.77 75.19 72.38 71.19 72.26 72.07 71.62 72.16 68.18 66.03 66.43 66.11 65.59 64.29 63.54 62.88 60.83 59.79 58.90 58.24 58.03 57.63 58.02 59.61
76.76 76.58 76.57 74.62 71.99 72.06 73.59 75.28 75.48 74.60 72.20 71.21 70.25 70.58 70.91 71.79 72.85 72.61 71.19 71.03 73.19 70.80 68.76 65.06 63.89 63.54 65.19 64.93 64.73 64.43 62.25 60.59 58.67 57.16 56.56 56.53 57.03 57.05
75.34 75.94 76.26 74.60 72.86 69.76 69.35 69.09 69.65 72.64 73.20 71.34 70.99 69.61 73.49 74.03 73.18 72.46 72.81 69.20 65.93 70.86 67.67 64.41 66.07 62.96 64.65 65.95 64.61 63.27 62.27 61.31 59.70 58.09 56.34 55.58 55.93 56.09
74.27 73.48 73.13 74.23 74.28 74.95 69.94 68.38 68.46 67.66 68.15 71.55 69.86 70.22 71.71 73.91 73.11 71.78 71.26 70.87 68.02 69.01 66.96 63.83 65.49 63.90 64.29 65.64 64.25 62.97 61.54 60.78 59.91 58.81 57.30 55.62 55.22 55.22
75.08 73.86 73.51 72.66 69.87 69.98 72.69 74.00 73.64 73.22 71.15 71.32 71.73 71.42 72.86 74.11 71.73 71.81 71.97 71.45 70.46 68.32 67.90 62.54 64.61 62.58 64.26 64.49 64.40 63.80 62.27 60.18 59.34 58.37 57.19 55.13 53.59 53.16
74.07 72.78 71.64 70.82 63.90 63.06 70.93 72.53 73.17 73.17 69.83 67.16 67.09 66.56 66.43 66.83 67.94 69.34 69.49 68.34 66.75 66.93 68.36 65.48 66.11 63.67 65.20 64.55 65.43 64.06 62.23 59.32 57.98 57.96 57.32 55.39 52.78 51.88
74.06 68.96 63.11 65.33 60.77 60.33 68.96 70.57 69.78 70.86 71.86 72.65 72.56 70.31 67.49 70.91 66.39 69.65 69.97 68.42 68.86 68.92 71.99 64.95 65.02 64.89 63.04 63.98 66.16 65.33 64.76 59.56 56.88 56.27 56.44 55.30 52.39 55.34
68.97 69.00 66.30 59.86 58.51 59.30 60.24 67.59 66.92 67.11 69.85 71.26 70.84 70.62 71.95 72.41 73.71 73.65 73.55 70.74 69.49 69.68 69.36 67.54 70.07 66.97 65.05 66.08 69.30 68.74 68.29 69.69 67.02 60.53 54.31 53.62 51.90 54.80
66.84 65.95 64.44 57.33 56.90 58.82 62.33 60.13 61.17 63.12 69.51 69.70 68.82 68.46 68.97 69.20 71.21 73.98 73.77 73.58 73.80 72.56 72.68 68.99 67.53 68.12 69.82 68.79 68.76 72.78 69.58 68.80 66.61 63.72 63.54 57.67 52.16 51.95
64.91 60.09 57.73 57.26 56.63 59.76 59.86 60.21 62.14 64.95 66.08 65.74 64.97 65.85 67.60 68.60 70.04 72.60 73.43 73.86 73.65 72.98 71.98 70.99 68.50 68.70 70.23 68.48 68.54 70.25 67.31 67.26 68.19 67.06 67.52 66.74 63.55 58.98
61.35 64.35 62.58 61.75 59.98 61.46 62.88 62.50 62.49 62.33 62.45 62.01 62.78 64.06 64.99 65.14 66.27 66.88 66.50 67.89 69.68 70.32 73.29 73.39 72.54 71.54 68.91 68.88 69.24 66.53 65.94 63.98 67.64 67.42 66.75 66.01 67.93 64.27
60.34 65.81 64.07 62.67 61.59 61.46 62.09 62.23 61.56 60.97 60.78 61.72 61.61 61.81 62.69 63.25 63.42 64.71 64.44 65.05 65.45 66.09 66.71 70.34 72.66 72.09 71.81 70.28 67.22 68.63 68.30 68.12 67.72 67.08 67.48 65.54 67.00 68.23
62.32 63.04 61.36 60.60 59.96 59.77 59.61 59.56 59.62 59.13 58.92 59.42 59.38 59.33 59.42 59.86 59.38 62.06 62.92 62.40 61.57 62.63 63.25 65.44 66.72 67.71 68.54 68.40 67.80 67.86 68.34 68.24 68.90 68.18 68.46 65.65 66.26 68.19
61.68 60.58 59.60 59.79 59.34 58.95 58.77 58.43 58.24 57.86 58.67 57.72 58.29 58.04 57.94 58.11 58.36 58.48 59.20 58.50 58.29 59.70 61.59 63.54 64.26 66.04 63.05 60.49 65.73 61.48 66.80 66.89 69.26 68.19 68.92 66.32 64.15 66.90
60.06 59.20 59.07 59.19 58.73 58.30 58.59 58.06 58.83 58.54 57.66 57.66 57.71 57.61 57.66 57.17 57.00 56.72 57.15 56.70 56.45 57.27 58.92 60.31 60.64 59.47 57.80 59.48 61.62 63.97 56.68 67.41 66.60 66.42 65.75 68.08 69.06 63.50
58.92 59.00 59.43 59.27 58.70 59.17 59.21 58.61 58.51 56.83 56.68 56.81 56.53 56.22 56.52 56.10 56.22 56.14 55.92 51.29 52.37 55.96 54.86 55.69 57.97 58.22 61.63 62.41 59.10 59.93 63.36 55.59 60.32 64.73 66.07 66.10 64.96 65.99
59.30 58.92 59.06 59.02 58.62 59.22 58.91 58.62 57.41 56.38 55.60 55.35 55.16 54.54 54.11 53.94 53.41 53.44 53.36 52.67 53.30 54.00 54.06 55.13 57.34 56.88 56.70 56.70 55.99 58.59 59.22 62.67 60.41 56.59 56.97 59.26 61.50 60.15
58.44 59.20 58.59 58.58 58.41 58.81 57.45 55.74 54.32 54.17 53.84 53.21 51.82 52.08 52.59 51.70 52.35 52.31 52.17 52.79 53.22 53.00 53.68 53.21 54.05 55.18 54.54 55.08 54.55 55.99 58.69 60.44 59.92 60.67 63.20 57.98 56.27 56.27
MSLP
1016.56 1016.75 1016.97 1016.33 1016.12 1015.79 1015.70 1015.60 1015.66 1015.58 1015.46 1015.52 1015.38 1015.67 1013.95 1014.78 1015.69 1016.63 1017.01 1018.13 1018.74 1019.17 1019.52 1019.84 1020.04 1020.28 1020.60 1020.88 1021.11 1021.36 1021.59 1021.79 1021.95 1022.02 1022.05 1021.97 1021.87 1021.74
1016.10 1016.06 1016.39 1016.04 1016.13 1016.06 1015.46 1015.23 1015.07 1015.34 1015.20 1014.84 1015.36 1016.43 1015.89 1014.67 1015.81 1015.92 1016.60 1017.43 1018.15 1018.67 1019.16 1019.56 1019.98 1020.14 1020.28 1020.60 1020.89 1021.11 1021.34 1021.57 1021.70 1021.74 1021.77 1021.80 1021.78 1021.66
1016.31 1016.20 1016.10 1016.22 1016.18 1016.15 1015.74 1015.66 1015.26 1015.40 1015.14 1014.67 1015.16 1015.70 1016.74 1016.12 1016.07 1015.88 1016.38 1017.09 1017.74 1018.24 1018.64 1019.13 1019.58 1020.00 1020.12 1020.22 1020.56 1020.88 1021.11 1021.35 1021.47 1021.52 1021.59 1021.61 1021.57 1021.51
1016.30 1016.23 1015.91 1015.85 1015.98 1016.07 1015.96 1015.83 1015.40 1015.36 1015.40 1015.33 1015.43 1015.80 1016.07 1015.47 1016.06 1016.30 1016.54 1016.41 1016.53 1017.39 1017.97 1018.48 1018.94 1019.31 1019.73 1020.02 1020.18 1020.54 1020.81 1020.92 1021.13 1021.25 1021.28 1021.35 1021.37 1021.40
1016.14 1016.06 1015.98 1015.85 1015.89 1015.86 1016.03 1016.14 1015.46 1015.32 1015.04 1015.26 1015.21 1015.24 1015.33 1015.75 1016.22 1016.56 1016.67 1016.61 1016.23 1017.06 1017.67 1018.23 1018.56 1018.97 1019.33 1019.67 1020.04 1020.20 1020.57 1020.80 1020.75 1020.99 1021.09 1021.16 1021.23 1021.24
1015.74 1015.86 1015.77 1015.76 1015.82 1016.07 1016.07 1016.02 1015.62 1015.61 1015.48 1015.51 1015.36 1015.11 1015.01 1015.04 1015.70 1015.56 1016.06 1016.22 1016.04 1016.14 1017.43 1018.00 1018.36 1018.53 1018.77 1019.22 1019.62 1019.96 1020.08 1020.37 1020.48 1020.61 1020.69 1020.80 1020.88 1021.03
1015.58 1015.60 1015.64 1016.10 1016.40 1016.57 1016.43 1015.93 1016.05 1016.05 1015.78 1015.32 1015.43 1015.09 1014.51 1015.42 1015.43 1015.24 1015.51 1015.50 1015.97 1016.59 1017.12 1017.60 1017.74 1017.90 1018.08 1018.72 1018.83 1019.06 1019.44 1019.69 1019.84 1019.97 1020.18 1020.45 1020.53 1020.69
1015.73 1016.01 1016.03 1016.20 1016.28 1016.64 1016.77 1016.78 1016.85 1016.52 1016.03 1015.52 1015.01 1015.13 1015.11 1015.50 1015.59 1015.73 1015.75 1015.70 1015.67 1015.71 1016.56 1016.81 1016.93 1017.18 1017.18 1017.61 1017.82 1018.14 1018.51 1018.82 1019.17 1019.48 1019.75 1020.00 1020.08 1020.30
1016.59 1016.81 1016.73 1016.29 1016.43 1016.52 1016.60 1016.53 1016.45 1016.40 1016.48 1016.39 1016.21 1015.95 1015.71 1015.65 1015.86 1015.92 1015.93 1015.78 1015.50 1015.74 1016.54 1016.44 1016.52 1016.58 1016.39 1016.51 1016.69 1017.05 1017.33 1017.75 1018.26 1018.72 1019.11 1019.40 1019.58 1019.72
1016.47 1016.70 1016.87 1017.08 1017.36 1017.18 1016.66 1016.01 1015.91 1015.86 1015.95 1015.96 1015.92 1015.98 1015.91 1015.60 1015.94 1015.94 1015.85 1015.71 1015.59 1015.94 1016.24 1016.16 1016.24 1016.38 1016.34 1016.26 1016.30 1016.73 1017.12 1017.19 1017.49 1017.80 1018.14 1018.49 1018.88 1019.15
1016.59 1016.92 1017.02 1017.16 1017.76 1017.59 1016.91 1015.89 1015.53 1015.32 1015.40 1015.66 1015.71 1015.77 1015.74 1015.81 1015.96 1015.93 1015.28 1015.54 1015.12 1015.00 1015.49 1015.88 1015.97 1016.02 1016.01 1015.86 1015.79 1015.85 1016.04 1016.25 1016.52 1016.84 1017.02 1017.48 1018.00 1018.46
1015.82 1017.07 1017.39 1017.70 1017.80 1017.63 1017.12 1016.21 1015.88 1015.72 1015.51 1015.33 1015.26 1015.15 1015.13 1014.88 1015.38 1015.54 1015.04 1015.01 1014.97 1014.86 1014.69 1015.63 1015.79 1015.99 1015.78 1014.85 1014.67 1014.79 1014.83 1015.07 1015.32 1015.80 1016.33 1016.75 1017.36 1017.90
1015.56 1015.83 1017.38 1017.92 1018.04 1017.90 1017.45 1017.07 1016.68 1016.47 1015.67 1015.40 1014.87 1014.08 1013.70 1013.94 1014.22 1014.37 1014.40 1014.55 1014.55 1014.48 1014.61 1015.05 1014.47 1014.79 1015.06 1013.73 1013.10 1013.41 1013.36 1013.02 1014.12 1014.99 1015.64 1015.89 1016.47 1016.89
1016.33 1016.71 1017.45 1017.93 1018.06 1017.89 1017.33 1017.38 1016.92 1016.37 1015.60 1015.39 1015.00 1014.56 1014.43 1014.27 1014.15 1014.17 1014.09 1014.05 1013.95 1013.96 1014.10 1014.41 1014.38 1014.02 1013.97 1013.70 1013.34 1012.85 1012.44 1012.31 1012.91 1013.99 1014.39 1015.06 1015.87 1016.26
1017.07 1017.53 1017.69 1017.83 1017.78 1017.95 1017.83 1017.48 1017.18 1016.73 1016.13 1015.73 1015.55 1015.31 1014.97 1014.71 1014.38 1013.72 1013.65 1013.46 1013.54 1013.48 1013.34 1013.83 1013.78 1013.57 1013.50 1013.34 1013.27 1013.05 1013.11 1012.86 1012.57 1012.89 1013.10 1013.42 1014.03 1014.78
1017.33 1017.42 1017.51 1017.59 1017.55 1017.53 1017.29 1017.51 1017.52 1017.28 1016.94 1016.83 1016.51 1016.17 1015.84 1015.58 1014.81 1014.40 1014.10 1013.67 1013.17 1012.51 1012.27 1012.56 1012.74 1012.82 1012.78 1012.80 1012.90 1012.71 1012.80 1013.22 1012.93 1012.12 1012.38 1012.41 1012.27 1012.64
1017.34 1016.67 1016.77 1016.89 1017.04 1017.14 1017.06 1017.26 1017.59 1017.68 1017.60 1017.20 1016.80 1016.50 1016.11 1015.75 1015.45 1014.99 1014.77 1014.39 1013.92 1013.23 1012.54 1012.25 1012.21 1012.22 1012.31 1012.27 1012.23 1012.17 1011.89 1011.90 1011.91 1012.09 1012.19 1011.50 1011.13 1010.85
1016.88 1016.55 1016.56 1016.69 1016.86 1016.99 1017.15 1017.40 1017.70 1017.92 1018.04 1017.79 1017.51 1017.21 1016.71 1016.35 1016.21 1015.30 1014.87 1014.67 1014.44 1013.91 1013.33 1012.69 1012.42 1012.31 1011.89 1011.45 1011.46 1011.59 1011.47 1011.27 1010.92 1010.77 1010.71 1010.75 1010.03 1009.38
1016.48 1016.70 1016.86 1017.10 1017.22 1017.51 1017.49 1017.72 1017.63 1017.98 1018.15 1018.22 1018.00 1017.83 1017.56 1017.03 1016.43 1015.90 1015.54 1015.43 1014.97 1014.34 1013.56 1012.93 1012.38 1012.29 1012.04 1011.72 1011.41 1011.25 1011.26 1010.98 1010.87 1010.74 1010.51 1010.29 1009.91 1009.28
1016.39 1016.75 1017.14 1017.53 1017.65 1017.76 1017.76 1018.05 1018.22 1017.85 1017.76 1017.72 1017.56 1017.43 1017.27 1016.99 1016.62 1016.46 1016.14 1016.00 1015.61 1014.88 1013.85 1013.26 1012.91 1013.14 1013.10 1012.18 1011.57 1011.13 1010.90 1010.88 1010.65 1010.38 1009.98 1009.60 1009.18 1008.79
1016.23 1016.33 1016.63 1016.98 1017.54 1017.45 1017.50 1017.65 1017.93 1017.95 1017.79 1017.49 1017.23 1017.25 1017.12 1016.83 1016.39 1016.25 1016.05 1016.01 1015.81 1015.22 1014.70 1014.25 1014.18 1014.09 1013.10 1012.12 1010.94 1010.27 1009.89 1010.44 1010.45 1010.41 1009.93 1009.62 1009.11 1008.86
1016.15 1016.17 1016.58 1017.09 1017.42 1017.70 1017.61 1017.53 1017.63 1017.70 1017.81 1017.52 1017.34 1017.33 1017.15 1016.73 1016.22 1015.95 1015.85 1015.91 1015.63 1015.34 1015.12 1015.03 1014.45 1014.00 1013.57 1012.66 1011.71 1010.74 1009.82 1009.17 1008.84 1008.74 1009.10 1009.27 1009.37 1008.57
1016.27 1016.34 1016.50 1016.87 1017.30 1017.69 1017.70 1017.90 1018.36 1018.28 1018.28 1017.97 1017.80 1017.61 1017.50 1017.18 1016.91 1016.57 1016.26 1015.92 1015.66 1015.51 1015.17 1015.07 1015.02 1014.62 1014.15 1013.60 1012.77 1011.55 1010.37 1009.10 1008.37 1008.12 1007.58 1007.49 1007.50 1007.37
Wind_Speed
6 7 7 6 5 4 3 3 2 6 4 4 2 13 7 8 13 9 8 15 13 12 11 10 10 9 8 7 6 5 5 4 3 3 3 3 4 6
6 6 5 6 4 5 7 6 5 4 7 2 3 4 9 3 11 9 9 19 16 14 12 11 10 10 11 10 9 8 7 7 6 5 5 4 4 5
7 6 7 6 6 7 4 5 5 3 8 8 4 7 9 5 6 6 7 8 9 15 14 12 12 11 12 12 11 10 8 7 7 7 7 6 5 4
5 7 8 7 7 7 7 7 7 6 8 7 7 3 6 1 3 2 5 9 11 17 16 15 14 13 12 12 12 11 10 10 9 8 7 7 6 5
6 5 7 8 7 7 7 6 8 7 6 8 5 6 4 4 4 5 7 8 9 16 13 13 12 12 12 12 11 11 10 11 10 9 8 7 7 7
0 4 5 6 6 4 7 8 8 6 6 5 7 4 4 7 7 7 5 7 8 6 7 8 11 14 15 12 11 12 12 11 10 10 10 9 8 7
4 4 6 3 4 5 7 6 7 5 8 8 5 9 5 2 6 4 3 5 4 7 8 5 7 7 9 12 15 17 14 14 13 12 11 9 9 9
6 9 8 7 6 5 6 7 7 8 8 9 8 7 7 6 5 5 5 6 7 7 8 7 4 8 8 8 14 17 19 17 15 13 12 12 11 10
4 4 7 6 9 7 8 8 9 8 10 8 10 10 10 8 6 6 7 7 7 2 7 6 1 2 3 8 12 18 20 18 17 15 14 14 13 11
4 5 6 5 9 10 10 8 7 8 8 7 8 8 10 8 4 5 7 6 5 5 6 5 2 4 3 6 4 5 13 15 16 17 17 16 15 13
6 4 5 6 9 9 8 8 7 5 6 4 3 7 8 7 8 7 8 4 7 6 8 7 5 3 3 5 4 14 14 15 17 19 19 18 16 14
9 10 11 7 6 8 8 7 7 5 7 5 7 8 12 10 12 10 9 6 6 4 6 7 4 4 4 7 11 9 10 16 19 19 17 17 16 10
6 1 9 8 7 8 6 6 7 8 8 7 8 7 6 4 4 6 7 7 6 7 5 5 4 6 7 9 4 9 11 11 10 10 14 17 18 17
4 6 5 5 3 6 6 8 9 9 5 3 5 6 6 6 8 5 6 6 7 9 4 8 3 4 6 8 6 4 4 1 6 7 9 11 15 19
5 3 3 8 8 5 9 9 11 7 6 6 6 8 7 5 9 5 4 7 7 8 9 9 7 8 7 6 6 6 2 3 4 8 10 10 10 10
6 5 4 3 4 5 6 8 7 6 6 6 8 7 8 8 10 8 9 10 8 6 8 8 11 11 9 7 7 9 6 4 2 7 4 4 10 12
5 3 2 3 3 4 4 7 6 7 7 6 6 7 7 8 8 9 8 9 9 9 9 7 5 8 7 9 6 8 9 9 9 11 11 11 11 12
5 2 3 3 3 4 5 6 6 6 7 7 7 7 7 7 8 7 8 7 8 9 10 10 9 8 6 8 12 9 9 8 9 9 7 9 12 11
4 3 3 3 4 4 4 4 4 5 5 6 6 6 7 7 7 7 7 7 9 9 9 9 10 7 9 8 6 11 9 9 7 8 7 6 9 12
3 3 3 3 3 3 3 4 2 3 4 3 4 5 5 6 7 8 8 10 10 11 10 10 9 10 11 11 9 12 12 8 8 9 11 8 9 8
5 4 3 3 3 3 2 3 2 3 3 5 5 5 6 7 7 7 7 5 6 8 10 10 11 15 11 11 10 10 8 14 13 11 11 10 10 8
4 4 3 3 3 2 1 0 2 4 6 5 5 6 6 7 7 8 8 9 9 9 9 9 11 11 11 12 13 15 12 11 8 19 18 15 7 6
4 2 4 3 4 1 3 4 4 4 3 5 6 6 7 7 7 8 9 9 8 9 9 8 9 9 10 11 14 14 17 15 11 10 8 16 19 22
Wind_Direction
239 226 242 292 332 318 291 285 263 306 307 264 346 320 202 172 153 184 215 180 189 195 202 207 207 202 205 197 179 191 213 231 255 275 294 310 329 337
236 208 259 275 280 302 280 275 278 252 260 247 200 159 8 272 155 182 206 164 185 192 201 207 212 202 191 187 187 195 210 222 227 231 241 264 297 319
266 278 251 256 276 283 286 289 311 319 268 280 339 146 175 261 144 193 200 195 174 194 196 202 203 208 205 196 199 205 210 219 226 230 239 250 265 297
269 282 273 266 250 241 266 298 292 302 309 307 307 337 269 336 30 267 234 237 226 187 192 195 198 203 207 210 204 209 212 209 216 226 231 241 250 270
285 247 267 267 281 275 279 269 252 246 237 251 284 261 211 208 213 246 247 266 269 146 185 192 201 207 208 215 217 214 217 228 221 227 231 235 245 252
331 312 294 291 282 286 275 273 276 292 283 258 261 293 219 186 199 227 199 220 258 251 186 192 206 209 215 214 215 223 219 219 218 221 223 227 230 239
304 264 252 359 11 326 303 319 323 258 253 232 228 250 320 94 224 274 277 264 202 236 226 210 210 209 211 215 234 225 221 219 219 217 218 217 216 226
328 338 326 222 216 239 255 274 291 290 287 296 308 304 315 309 280 289 279 258 266 195 223 240 228 219 202 209 210 225 210 216 217 218 217 215 212 220
356 312 305 9 12 333 223 241 254 244 244 286 289 285 300 310 312 282 276 262 250 196 214 252 217 231 188 229 218 209 214 207 210 211 212 215 218 214
31 23 31 6 26 346 317 279 250 246 230 236 246 267 288 304 292 291 283 274 252 245 195 240 189 237 227 249 248 207 231 218 209 209 210 210 212 214
112 71 23 13 13 347 306 307 318 285 178 218 279 284 277 257 259 291 262 234 246 217 179 247 230 212 211 213 217 236 233 217 214 213 209 206 207 209
176 125 74 53 11 336 320 330 300 4 333 288 262 240 235 239 215 235 267 257 259 263 176 200 204 212 257 219 218 219 225 227 217 209 207 205 199 213
339 1 83 44 14 340 319 10 338 317 292 270 275 276 249 241 277 218 248 254 257 254 169 213 256 195 233 273 202 212 219 209 203 205 206 208 194 206
340 27 45 2 313 319 345 352 324 282 280 326 334 324 16 3 349 312 276 259 262 259 250 209 254 255 254 263 265 269 291 20 161 186 203 212 203 209
40 98 241 278 266 215 67 24 11 3 348 348 346 335 339 324 311 308 301 291 290 272 247 214 229 256 265 259 275 281 280 301 221 198 198 204 199 198
159 191 110 69 122 83 70 28 30 2 357 4 347 354 348 349 333 358 342 347 309 271 236 236 238 245 257 253 256 260 247 243 255 244 239 256 214 209
316 162 99 60 68 48 52 52 44 31 18 6 5 353 347 342 342 337 340 329 331 331 326 329 313 271 266 268 268 260 265 255 237 233 221 231 237 235
233 148 111 75 57 48 42 51 52 39 22 4 7 356 353 351 347 339 346 338 337 328 328 323 332 329 300 267 226 265 278 279 274 265 243 246 252 239
189 121 100 79 69 54 60 54 45 56 35 10 358 1 351 349 344 349 349 351 340 335 322 307 311 320 325 324 313 237 273 288 298 285 275 270 255 263
110 118 116 86 70 75 59 64 346 36 58 338 353 343 342 342 349 349 345 353 344 327 336 338 352 357 333 309 299 304 228 265 274 284 284 287 267 245
148 144 133 126 114 135 97 80 324 26 3 339 0 352 345 339 339 344 332 318 310 337 334 334 340 316 308 311 299 303 305 211 247 280 286 285 285 283
160 138 125 113 109 95 117 213 28 14 14 346 2 353 352 332 340 339 343 337 333 336 334 330 336 335 328 323 319 318 310 317 246 222 231 233 258 279
174 176 140 147 157 127 27 44 22 12 357 352 358 347 342 335 335 340 335 329 325 335 331 329 331 329 329 322 322 316 308 311 329 303 311 215 224 228